owner,sensor,date,latitude,longitude,vertical_datum,direction_of_sea_water_velocity,sea_water_speed,upward_sea_water_velocity,qcFlag 
TABS,ioos:station:wmo:42050:1,2003-04-01T00:00:00Z,28.8425,-94.2433,2.0,180.6978743,11.49085288,-99999.0,'11111222,11111222,99999999' 
TABS,ioos:station:wmo:42050:1,2003-04-01T00:30:00Z,28.8425,-94.2433,2.0,181.7604845,10.41491719,-99999.0,'11111222,11111222,99999999' 
TABS,ioos:station:wmo:42050:1,2003-04-01T01:00:00Z,28.8425,-94.2433,2.0,170.6594149,10.04315687,-99999.0,'11111222,11111222,99999999' 
TABS,ioos:station:wmo:42050:1,2003-04-01T01:30:00Z,28.8425,-94.2433,2.0,162.4569961,8.327286473,-99999.0,'11133222,11111222,99999999' 
TABS,ioos:station:wmo:42050:1,2003-04-01T02:00:00Z,28.8425,-94.2433,2.0,149.931277,2.634539808,-99999.0,'11133222,11111222,99999999' 
TABS,ioos:station:wmo:42050:1,2003-04-01T02:30:00Z,28.8425,-94.2433,2.0,147.7451544,1.217949096,-99999.0,'11133222,11111222,99999999' 
TABS,ioos:station:wmo:42050:1,2003-04-01T03:00:00Z,28.8425,-94.2433,2.0,85.10960938,1.876832438,-99999.0,'11133222,11111222,99999999' 
TABS,ioos:station:wmo:42050:1,2003-04-01T03:30:00Z,28.8425,-94.2433,2.0,41.41313145,2.373457394,-99999.0,'11133222,11111222,99999999' 
TABS,ioos:station:wmo:42050:1,2003-04-01T04:00:00Z,28.8425,-94.2433,2.0,53.97271086,5.712617614,-99999.0,'11133222,11111222,99999999' 
TABS,ioos:station:wmo:42050:1,2003-04-01T04:30:00Z,28.8425,-94.2433,2.0,47.55576448,7.453247614,-99999.0,'11133222,11111222,99999999' 
TABS,ioos:station:wmo:42050:1,2003-04-01T05:00:00Z,28.8425,-94.2433,2.0,40.75832273,8.317144943,-99999.0,'11133222,11111222,99999999' 
TABS,ioos:station:wmo:42050:1,2003-04-01T05:30:00Z,28.8425,-94.2433,2.0,55.82145558,10.73383902,-99999.0,'11111222,11111222,99999999' 
TABS,ioos:station:wmo:42050:1,2003-04-01T06:00:00Z,28.8425,-94.2433,2.0,42.09050497,11.14422721,-99999.0,'11111222,11111222,99999999' 
TABS,ioos:station:wmo:42050:1,2003-04-01T06:30:00Z,28.8425,-94.2433,2.0,53.68050336,11.24451866,-99999.0,'11111222,11111222,99999999' 
TABS,ioos:station:wmo:42050:1,2003-04-01T07:00:00Z,28.8425,-94.2433,2.0,47.12681774,10.67052014,-99999.0,'11111222,11111222,99999999' 
TABS,ioos:station:wmo:42050:1,2003-04-01T07:30:00Z,28.8425,-94.2433,2.0,65.67101527,8.25290252,-99999.0,'11133222,11111222,99999999' 
TABS,ioos:station:wmo:42050:1,2003-04-01T08:00:00Z,28.8425,-94.2433,2.0,64.1374277,8.390357561,-99999.0,'11133222,11111222,99999999' 
TABS,ioos:station:wmo:42050:1,2003-04-01T08:30:00Z,28.8425,-94.2433,2.0,79.82605163,9.397771012,-99999.0,'11133222,11111222,99999999' 
TABS,ioos:station:wmo:42050:1,2003-04-01T09:00:00Z,28.8425,-94.2433,2.0,80.15734052,7.429353942,-99999.0,'11133222,11111222,99999999' 
TABS,ioos:station:wmo:42050:1,2003-04-01T09:30:00Z,28.8425,-94.2433,2.0,94.74546261,7.856933244,-99999.0,'11133222,11111222,99999999' 
TABS,ioos:station:wmo:42050:1,2003-04-01T10:00:00Z,28.8425,-94.2433,2.0,103.2615897,4.664386348,-99999.0,'11133222,11111222,99999999' 
TABS,ioos:station:wmo:42050:1,2003-04-01T10:30:00Z,28.8425,-94.2433,2.0,99.101103,6.258793814,-99999.0,'11133222,11111222,99999999' 
TABS,ioos:station:wmo:42050:1,2003-04-01T11:00:00Z,28.8425,-94.2433,2.0,103.5386658,3.630895206,-99999.0,'11133222,11111222,99999999' 
TABS,ioos:station:wmo:42050:1,2003-04-01T11:30:00Z,28.8425,-94.2433,2.0,146.0270013,2.809590718,-99999.0,'11133222,11111222,99999999' 
TABS,ioos:station:wmo:42050:1,2003-04-01T12:00:00Z,28.8425,-94.2433,2.0,116.6755983,4.633141483,-99999.0,'11133222,11111222,99999999' 
TABS,ioos:station:wmo:42050:1,2003-04-01T12:30:00Z,28.8425,-94.2433,2.0,121.8380411,4.720190674,-99999.0,'11133222,11111222,99999999' 
TABS,ioos:station:wmo:42050:1,2003-04-01T13:00:00Z,28.8425,-94.2433,2.0,53.57204854,3.89011568,-99999.0,'11133222,11111222,99999999' 
TABS,ioos:station:wmo:42050:1,2003-04-01T13:30:00Z,28.8425,-94.2433,2.0,22.20363707,2.646223724,-99999.0,'11133222,11111222,99999999' 
TABS,ioos:station:wmo:42050:1,2003-04-01T14:00:00Z,28.8425,-94.2433,2.0,53.60897112,3.590125346,-99999.0,'11133222,11111222,99999999' 
TABS,ioos:station:wmo:42050:1,2003-04-01T14:30:00Z,28.8425,-94.2433,2.0,36.37126934,5.514208919,-99999.0,'11133222,11111222,99999999' 
TABS,ioos:station:wmo:42050:1,2003-04-01T15:00:00Z,28.8425,-94.2433,2.0,46.42744225,8.516208076,-99999.0,'11133222,11111222,99999999' 
TABS,ioos:station:wmo:42050:1,2003-04-01T15:30:00Z,28.8425,-94.2433,2.0,34.27996098,9.161359069,-99999.0,'11133222,11111222,99999999' 
TABS,ioos:station:wmo:42050:1,2003-04-01T16:00:00Z,28.8425,-94.2433,2.0,22.55103321,12.77693234,-99999.0,'11111222,11111222,99999999' 
TABS,ioos:station:wmo:42050:1,2003-04-01T16:30:00Z,28.8425,-94.2433,2.0,16.50743834,14.00733022,-99999.0,'11111222,11111222,99999999' 
TABS,ioos:station:wmo:42050:1,2003-04-01T17:00:00Z,28.8425,-94.2433,2.0,18.43511617,14.29349502,-99999.0,'11111222,11111222,99999999' 
TABS,ioos:station:wmo:42050:1,2003-04-01T17:30:00Z,28.8425,-94.2433,2.0,16.07539632,16.97368846,-99999.0,'11111222,11111222,99999999' 
TABS,ioos:station:wmo:42050:1,2003-04-01T18:00:00Z,28.8425,-94.2433,2.0,20.02715478,16.73174528,-99999.0,'11111222,11111222,99999999' 
TABS,ioos:station:wmo:42050:1,2003-04-01T18:30:00Z,28.8425,-94.2433,2.0,9.674715664,16.42357148,-99999.0,'11111222,11111222,99999999' 
TABS,ioos:station:wmo:42050:1,2003-04-01T19:00:00Z,28.8425,-94.2433,2.0,26.23965958,15.74217266,-99999.0,'11111222,11111222,99999999' 
TABS,ioos:station:wmo:42050:1,2003-04-01T19:30:00Z,28.8425,-94.2433,2.0,11.59662564,16.86423731,-99999.0,'11111222,11111222,99999999' 
TABS,ioos:station:wmo:42050:1,2003-04-01T20:00:00Z,28.8425,-94.2433,2.0,22.54470249,13.45847317,-99999.0,'11111222,11111222,99999999' 
TABS,ioos:station:wmo:42050:1,2003-04-01T20:30:00Z,28.8425,-94.2433,2.0,13.22369846,13.5081679,-99999.0,'11111222,11111222,99999999' 
TABS,ioos:station:wmo:42050:1,2003-04-01T21:00:00Z,28.8425,-94.2433,2.0,2.87216623,11.97504071,-99999.0,'11111222,11111222,99999999' 
TABS,ioos:station:wmo:42050:1,2003-04-01T21:30:00Z,28.8425,-94.2433,2.0,7.015733135,9.088041593,-99999.0,'11133222,11111222,99999999' 
TABS,ioos:station:wmo:42050:1,2003-04-01T22:00:00Z,28.8425,-94.2433,2.0,4.178457998,8.372251788,-99999.0,'11133222,11111222,99999999' 
TABS,ioos:station:wmo:42050:1,2003-04-01T22:30:00Z,28.8425,-94.2433,2.0,351.8082751,3.93010178,-99999.0,'11133222,11111222,99999999' 
TABS,ioos:station:wmo:42050:1,2003-04-01T23:00:00Z,28.8425,-94.2433,2.0,9.326819507,5.553413365,-99999.0,'11133222,11111222,99999999' 
TABS,ioos:station:wmo:42050:1,2003-04-01T23:30:00Z,28.8425,-94.2433,2.0,27.36287605,5.461007233,-99999.0,'11133222,11111222,99999999' 
TABS,ioos:station:wmo:42050:1,2003-04-02T00:00:00Z,28.8425,-94.2433,2.0,30.67389741,4.743711627,-99999.0,'11133222,11111222,99999999' 
TABS,ioos:station:wmo:42050:1,2003-04-02T00:30:00Z,28.8425,-94.2433,2.0,29.33116665,5.838467265,-99999.0,'11133222,11111222,99999999' 
TABS,ioos:station:wmo:42050:1,2003-04-02T01:00:00Z,28.8425,-94.2433,2.0,353.383488,5.03352759,-99999.0,'11133222,11111222,99999999' 
TABS,ioos:station:wmo:42050:1,2003-04-02T01:30:00Z,28.8425,-94.2433,2.0,54.76464028,10.7983934,-99999.0,'11111222,11111222,99999999' 
TABS,ioos:station:wmo:42050:1,2003-04-02T02:00:00Z,28.8425,-94.2433,2.0,68.99611758,13.47535899,-99999.0,'11111222,11111222,99999999' 
TABS,ioos:station:wmo:42050:1,2003-04-02T02:30:00Z,28.8425,-94.2433,2.0,55.01218332,11.38814296,-99999.0,'11111222,11111222,99999999' 
TABS,ioos:station:wmo:42050:1,2003-04-02T03:00:00Z,28.8425,-94.2433,2.0,24.57594826,8.63195227,-99999.0,'11133222,11111222,99999999' 
TABS,ioos:station:wmo:42050:1,2003-04-02T03:30:00Z,28.8425,-94.2433,2.0,31.78798848,11.44699961,-99999.0,'11111222,11111222,99999999' 
TABS,ioos:station:wmo:42050:1,2003-04-02T04:00:00Z,28.8425,-94.2433,2.0,15.44074422,11.38076447,-99999.0,'11111222,11111222,99999999' 
TABS,ioos:station:wmo:42050:1,2003-04-02T04:30:00Z,28.8425,-94.2433,2.0,6.759974499,12.06386339,-99999.0,'11111222,11111222,99999999' 
TABS,ioos:station:wmo:42050:1,2003-04-02T05:00:00Z,28.8425,-94.2433,2.0,353.0518669,12.06863704,-99999.0,'11111222,11111222,99999999' 
TABS,ioos:station:wmo:42050:1,2003-04-02T05:30:00Z,28.8425,-94.2433,2.0,344.7328467,16.36765713,-99999.0,'11111222,11111222,99999999' 
TABS,ioos:station:wmo:42050:1,2003-04-02T06:00:00Z,28.8425,-94.2433,2.0,343.5373273,17.18450756,-99999.0,'11111222,11111222,99999999' 
TABS,ioos:station:wmo:42050:1,2003-04-02T06:30:00Z,28.8425,-94.2433,2.0,350.7493325,16.48439868,-99999.0,'11111222,11111222,99999999' 
TABS,ioos:station:wmo:42050:1,2003-04-02T07:00:00Z,28.8425,-94.2433,2.0,340.2000807,16.59085592,-99999.0,'11111222,11111222,99999999' 
TABS,ioos:station:wmo:42050:1,2003-04-02T07:30:00Z,28.8425,-94.2433,2.0,331.6464104,14.61311739,-99999.0,'11111222,11111222,99999999' 
TABS,ioos:station:wmo:42050:1,2003-04-02T08:00:00Z,28.8425,-94.2433,2.0,327.5541086,14.0538678,-99999.0,'11111222,11111222,99999999' 
TABS,ioos:station:wmo:42050:1,2003-04-02T08:30:00Z,28.8425,-94.2433,2.0,321.1889172,12.98745549,-99999.0,'11111222,11111222,99999999' 
TABS,ioos:station:wmo:42050:1,2003-04-02T09:00:00Z,28.8425,-94.2433,2.0,317.9826313,9.785468819,-99999.0,'11133222,11111222,99999999' 
TABS,ioos:station:wmo:42050:1,2003-04-02T09:30:00Z,28.8425,-94.2433,2.0,307.8482301,11.13162162,-99999.0,'11111222,11111222,99999999' 
TABS,ioos:station:wmo:42050:1,2003-04-02T10:00:00Z,28.8425,-94.2433,2.0,301.6113814,10.62673045,-99999.0,'11111222,11111222,99999999' 
TABS,ioos:station:wmo:42050:1,2003-04-02T10:30:00Z,28.8425,-94.2433,2.0,310.1154797,9.715580271,-99999.0,'11133222,11111222,99999999' 
TABS,ioos:station:wmo:42050:1,2003-04-02T11:00:00Z,28.8425,-94.2433,2.0,303.3377617,7.66055481,-99999.0,'11133222,11111222,99999999' 
TABS,ioos:station:wmo:42050:1,2003-04-02T11:30:00Z,28.8425,-94.2433,2.0,298.8753863,8.987352224,-99999.0,'11133222,11111222,99999999' 
TABS,ioos:station:wmo:42050:1,2003-04-02T12:00:00Z,28.8425,-94.2433,2.0,288.0581113,8.645854498,-99999.0,'11133222,11111222,99999999' 
TABS,ioos:station:wmo:42050:1,2003-04-02T12:30:00Z,28.8425,-94.2433,2.0,306.5561544,18.97228505,-99999.0,'11111222,11111222,99999999' 
TABS,ioos:station:wmo:42050:1,2003-04-02T13:00:00Z,28.8425,-94.2433,2.0,301.5882532,22.98560419,-99999.0,'11111222,11111222,99999999' 
TABS,ioos:station:wmo:42050:1,2003-04-02T13:30:00Z,28.8425,-94.2433,2.0,315.217618,22.37301947,-99999.0,'11111222,11111222,99999999' 
TABS,ioos:station:wmo:42050:1,2003-04-02T14:00:00Z,28.8425,-94.2433,2.0,313.4344357,27.17011778,-99999.0,'11111222,11111222,99999999' 
TABS,ioos:station:wmo:42050:1,2003-04-02T14:30:00Z,28.8425,-94.2433,2.0,312.761651,28.05819845,-99999.0,'11111222,11111222,99999999' 
TABS,ioos:station:wmo:42050:1,2003-04-02T15:00:00Z,28.8425,-94.2433,2.0,312.9368904,28.08327794,-99999.0,'11111222,11111222,99999999' 
TABS,ioos:station:wmo:42050:1,2003-04-02T15:30:00Z,28.8425,-94.2433,2.0,312.943428,28.9605404,-99999.0,'11111222,11111222,99999999' 
TABS,ioos:station:wmo:42050:1,2003-04-02T16:00:00Z,28.8425,-94.2433,2.0,313.6317381,29.01379672,-99999.0,'11111222,11111222,99999999' 
TABS,ioos:station:wmo:42050:1,2003-04-02T16:30:00Z,28.8425,-94.2433,2.0,316.0480344,29.00329809,-99999.0,'11111222,11111222,99999999' 
TABS,ioos:station:wmo:42050:1,2003-04-02T17:00:00Z,28.8425,-94.2433,2.0,322.0087277,27.58528593,-99999.0,'11111222,11111222,99999999' 
TABS,ioos:station:wmo:42050:1,2003-04-02T17:30:00Z,28.8425,-94.2433,2.0,324.6674134,30.57099933,-99999.0,'11111222,11111222,99999999' 
TABS,ioos:station:wmo:42050:1,2003-04-02T18:00:00Z,28.8425,-94.2433,2.0,324.4335784,27.52511944,-99999.0,'11111222,11111222,99999999' 
TABS,ioos:station:wmo:42050:1,2003-04-02T18:30:00Z,28.8425,-94.2433,2.0,323.0824328,28.66801005,-99999.0,'11111222,11111222,99999999' 
TABS,ioos:station:wmo:42050:1,2003-04-02T19:00:00Z,28.8425,-94.2433,2.0,323.706361,27.6553973,-99999.0,'11111222,11111222,99999999' 
TABS,ioos:station:wmo:42050:1,2003-04-02T19:30:00Z,28.8425,-94.2433,2.0,323.7524289,25.79151992,-99999.0,'11111222,11111222,99999999' 
TABS,ioos:station:wmo:42050:1,2003-04-02T20:00:00Z,28.8425,-94.2433,2.0,327.6874722,24.69406609,-99999.0,'11111222,11111222,99999999' 
TABS,ioos:station:wmo:42050:1,2003-04-02T20:30:00Z,28.8425,-94.2433,2.0,321.9355037,25.41552675,-99999.0,'11111222,11111222,99999999' 
TABS,ioos:station:wmo:42050:1,2003-04-02T21:00:00Z,28.8425,-94.2433,2.0,319.841164,21.78588993,-99999.0,'11111222,11111222,99999999' 
TABS,ioos:station:wmo:42050:1,2003-04-02T21:30:00Z,28.8425,-94.2433,2.0,313.2086043,21.0325676,-99999.0,'11111222,11111222,99999999' 
TABS,ioos:station:wmo:42050:1,2003-04-02T22:00:00Z,28.8425,-94.2433,2.0,308.8934844,19.94043129,-99999.0,'11111222,11111222,99999999' 
TABS,ioos:station:wmo:42050:1,2003-04-02T22:30:00Z,28.8425,-94.2433,2.0,299.7952249,15.63706494,-99999.0,'11111222,11111222,99999999' 
TABS,ioos:station:wmo:42050:1,2003-04-02T23:00:00Z,28.8425,-94.2433,2.0,289.0681963,14.60112667,-99999.0,'11111222,11111222,99999999' 
TABS,ioos:station:wmo:42050:1,2003-04-02T23:30:00Z,28.8425,-94.2433,2.0,263.2083482,11.92366135,-99999.0,'11111222,11111222,99999999' 
TABS,ioos:station:wmo:42050:1,2003-04-03T00:00:00Z,28.8425,-94.2433,2.0,264.7835299,11.9896497,-99999.0,'11111222,11111222,99999999' 
TABS,ioos:station:wmo:42050:1,2003-04-03T00:30:00Z,28.8425,-94.2433,2.0,259.8431208,11.39861834,-99999.0,'11111222,11111222,99999999' 
TABS,ioos:station:wmo:42050:1,2003-04-03T01:00:00Z,28.8425,-94.2433,2.0,240.7623115,12.18192924,-99999.0,'11111222,11111222,99999999' 
TABS,ioos:station:wmo:42050:1,2003-04-03T01:30:00Z,28.8425,-94.2433,2.0,252.0647145,13.76908131,-99999.0,'11111222,11111222,99999999' 
TABS,ioos:station:wmo:42050:1,2003-04-03T02:00:00Z,28.8425,-94.2433,2.0,262.0407385,13.72217548,-99999.0,'11111222,11111222,99999999' 
TABS,ioos:station:wmo:42050:1,2003-04-04T17:30:00Z,28.8425,-94.2433,2.0,288.0210861,13.99660673,-99999.0,'11111222,11111222,99999999' 
TABS,ioos:station:wmo:42050:1,2003-04-04T18:00:00Z,28.8425,-94.2433,2.0,296.9817489,16.00172491,-99999.0,'11111222,11111222,99999999' 
TABS,ioos:station:wmo:42050:1,2003-04-04T18:30:00Z,28.8425,-94.2433,2.0,315.0003157,14.00071427,-99999.0,'11111222,11111222,99999999' 
TABS,ioos:station:wmo:42050:1,2003-04-04T19:00:00Z,28.8425,-94.2433,2.0,321.0017338,13.99966071,-99999.0,'11111222,11111222,99999999' 
TABS,ioos:station:wmo:42050:1,2003-04-04T19:30:00Z,28.8425,-94.2433,2.0,312.0071907,13.00021538,-99999.0,'11111222,11111222,99999999' 
TABS,ioos:station:wmo:42050:1,2003-04-04T20:00:00Z,28.8425,-94.2433,2.0,324.0060106,14.00363524,-99999.0,'11111222,11111222,99999999' 
TABS,ioos:station:wmo:42050:1,2003-04-04T21:30:00Z,28.8425,-94.2433,2.0,331.9614974,7.998824914,-99999.0,'11133222,11111222,99999999' 
TABS,ioos:station:wmo:42050:1,2003-04-04T22:00:00Z,28.8425,-94.2433,2.0,342.0482914,6.002216257,-99999.0,'11133222,11111222,99999999' 
TABS,ioos:station:wmo:42050:1,2003-04-04T22:30:00Z,28.8425,-94.2433,2.0,38.01578205,5.0009999,-99999.0,'11133222,11111222,99999999' 
TABS,ioos:station:wmo:42050:1,2003-04-04T23:00:00Z,28.8425,-94.2433,2.0,54.02321384,5.004607877,-99999.0,'11133222,11111222,99999999' 
TABS,ioos:station:wmo:42050:1,2003-04-04T23:30:00Z,28.8425,-94.2433,2.0,90.0,2.0,-99999.0,'11133222,11111222,99999999' 
TABS,ioos:station:wmo:42050:1,2003-04-05T00:00:00Z,28.8425,-94.2433,2.0,117.0776881,3.998249617,-99999.0,'11133222,11111222,99999999' 
TABS,ioos:station:wmo:42050:1,2003-04-05T00:30:00Z,28.8425,-94.2433,2.0,128.0155716,5.0009999,-99999.0,'11133222,11111222,99999999' 
TABS,ioos:station:wmo:42050:1,2003-04-05T01:00:00Z,28.8425,-94.2433,2.0,159.028128,5.001299831,-99999.0,'11133222,11111222,99999999' 
TABS,ioos:station:wmo:42050:1,2003-04-06T05:00:00Z,28.8425,-94.2433,2.0,261.045461,41.89050967,-99999.0,'11111222,11111222,99999999' 
TABS,ioos:station:wmo:42050:1,2003-04-06T05:30:00Z,28.8425,-94.2433,2.0,267.3003557,46.29135988,-99999.0,'11111222,11111222,99999999' 
TABS,ioos:station:wmo:42050:1,2003-04-06T06:00:00Z,28.8425,-94.2433,2.0,269.7033804,44.49059451,-99999.0,'11111222,11111222,99999999' 
TABS,ioos:station:wmo:42050:1,2003-04-06T06:30:00Z,28.8425,-94.2433,2.0,279.5339576,39.66786231,-99999.0,'11111222,11111222,99999999' 
TABS,ioos:station:wmo:42050:1,2003-04-06T07:00:00Z,28.8425,-94.2433,2.0,286.8945487,37.16387493,-99999.0,'11111222,11111222,99999999' 
TABS,ioos:station:wmo:42050:1,2003-04-06T07:30:00Z,28.8425,-94.2433,2.0,300.6240062,37.84868954,-99999.0,'11111222,11111222,99999999' 
TABS,ioos:station:wmo:42050:1,2003-04-06T08:00:00Z,28.8425,-94.2433,2.0,302.2739669,37.81159875,-99999.0,'11111222,11111222,99999999' 
TABS,ioos:station:wmo:42050:1,2003-04-06T08:30:00Z,28.8425,-94.2433,2.0,308.0143388,33.25462975,-99999.0,'11111222,11111222,99999999' 
TABS,ioos:station:wmo:42050:1,2003-04-06T09:00:00Z,28.8425,-94.2433,2.0,310.7302302,32.85853922,-99999.0,'11111222,11111222,99999999' 
TABS,ioos:station:wmo:42050:1,2003-04-06T09:30:00Z,28.8425,-94.2433,2.0,312.2947249,35.352321,-99999.0,'11111222,11111222,99999999' 
TABS,ioos:station:wmo:42050:1,2003-04-06T10:00:00Z,28.8425,-94.2433,2.0,319.001593,30.80595072,-99999.0,'11111222,11111222,99999999' 
TABS,ioos:station:wmo:42050:1,2003-04-06T10:30:00Z,28.8425,-94.2433,2.0,324.2444833,29.00748352,-99999.0,'11111222,11111222,99999999' 
TABS,ioos:station:wmo:42050:1,2003-04-06T11:00:00Z,28.8425,-94.2433,2.0,327.9856234,26.18194798,-99999.0,'11111222,11111222,99999999' 
TABS,ioos:station:wmo:42050:1,2003-04-06T11:30:00Z,28.8425,-94.2433,2.0,330.5252955,23.96129587,-99999.0,'11111222,11111222,99999999' 
TABS,ioos:station:wmo:42050:1,2003-04-06T12:00:00Z,28.8425,-94.2433,2.0,335.0002249,22.59718788,-99999.0,'11111222,11111222,99999999' 
TABS,ioos:station:wmo:42050:1,2003-04-06T12:30:00Z,28.8425,-94.2433,2.0,333.14895,18.79662204,-99999.0,'11111222,11111222,99999999' 
TABS,ioos:station:wmo:42050:1,2003-04-06T13:00:00Z,28.8425,-94.2433,2.0,335.9962589,19.61649306,-99999.0,'11111222,11111222,99999999' 
TABS,ioos:station:wmo:42050:1,2003-04-06T13:30:00Z,28.8425,-94.2433,2.0,340.8227539,15.61663856,-99999.0,'11111222,11111222,99999999' 
TABS,ioos:station:wmo:42050:1,2003-04-06T14:00:00Z,28.8425,-94.2433,2.0,341.6966162,16.55772931,-99999.0,'11111222,11111222,99999999' 
TABS,ioos:station:wmo:42050:1,2003-04-06T14:30:00Z,28.8425,-94.2433,2.0,335.1566591,15.78034537,-99999.0,'11111222,11111222,99999999' 
TABS,ioos:station:wmo:42050:1,2003-04-06T15:00:00Z,28.8425,-94.2433,2.0,332.8863709,16.80705804,-99999.0,'11111222,11111222,99999999' 
TABS,ioos:station:wmo:42050:1,2003-04-06T15:30:00Z,28.8425,-94.2433,2.0,344.8497039,16.337864,-99999.0,'11111222,11111222,99999999' 
TABS,ioos:station:wmo:42050:1,2003-04-06T16:00:00Z,28.8425,-94.2433,2.0,339.1472127,18.06320293,-99999.0,'11111222,11111222,99999999' 
TABS,ioos:station:wmo:42050:1,2003-04-06T16:30:00Z,28.8425,-94.2433,2.0,333.5845581,15.44233791,-99999.0,'11111222,11111222,99999999' 
TABS,ioos:station:wmo:42050:1,2003-04-06T17:00:00Z,28.8425,-94.2433,2.0,333.6788091,14.72687679,-99999.0,'11111222,11111222,99999999' 
TABS,ioos:station:wmo:42050:1,2003-04-06T17:30:00Z,28.8425,-94.2433,2.0,334.2458767,15.48855707,-99999.0,'11111222,11111222,99999999' 
TABS,ioos:station:wmo:42050:1,2003-04-06T18:00:00Z,28.8425,-94.2433,2.0,334.7095352,13.27210985,-99999.0,'11111222,11111222,99999999' 
TABS,ioos:station:wmo:42050:1,2003-04-06T18:30:00Z,28.8425,-94.2433,2.0,336.7587377,12.26533734,-99999.0,'11111222,11111222,99999999' 
TABS,ioos:station:wmo:42050:1,2003-04-06T19:00:00Z,28.8425,-94.2433,2.0,331.4160863,12.18519183,-99999.0,'11111222,11111222,99999999' 
TABS,ioos:station:wmo:42050:1,2003-04-06T19:30:00Z,28.8425,-94.2433,2.0,347.4658818,11.19686563,-99999.0,'11111222,11111222,99999999' 
TABS,ioos:station:wmo:42050:1,2003-04-06T20:00:00Z,28.8425,-94.2433,2.0,353.2837541,10.0892418,-99999.0,'11111222,11111222,99999999' 
TABS,ioos:station:wmo:42050:1,2003-04-06T20:30:00Z,28.8425,-94.2433,2.0,3.012990918,7.991044988,-99999.0,'11133222,11111222,99999999' 
TABS,ioos:station:wmo:42050:1,2003-04-06T21:00:00Z,28.8425,-94.2433,2.0,20.17560851,4.581091573,-99999.0,'11133222,11111222,99999999' 
TABS,ioos:station:wmo:42050:1,2003-04-06T21:30:00Z,28.8425,-94.2433,2.0,340.0875961,4.169268521,-99999.0,'11133222,11111222,99999999' 
TABS,ioos:station:wmo:42050:1,2003-04-06T22:00:00Z,28.8425,-94.2433,2.0,341.1755445,2.789193432,-99999.0,'11133222,11111222,99999999' 
TABS,ioos:station:wmo:42050:1,2003-04-06T22:30:00Z,28.8425,-94.2433,2.0,16.66793452,1.743244102,-99999.0,'11133222,11111222,99999999' 
TABS,ioos:station:wmo:42050:1,2003-04-06T23:00:00Z,28.8425,-94.2433,2.0,296.2004745,1.404279175,-99999.0,'11133222,11111222,99999999' 
TABS,ioos:station:wmo:42050:1,2003-04-06T23:30:00Z,28.8425,-94.2433,2.0,199.8168957,2.359745749,-99999.0,'11133222,11111222,99999999' 
TABS,ioos:station:wmo:42050:1,2003-04-07T00:00:00Z,28.8425,-94.2433,2.0,169.9748399,5.859462433,-99999.0,'11133222,11111222,99999999' 
TABS,ioos:station:wmo:42050:1,2003-04-07T00:30:00Z,28.8425,-94.2433,2.0,198.4346953,5.059644256,-99999.0,'11133222,11111222,99999999' 
TABS,ioos:station:wmo:42050:1,2003-04-07T01:00:00Z,28.8425,-94.2433,2.0,197.7529163,7.707016284,-99999.0,'11133222,11111222,99999999' 
TABS,ioos:station:wmo:42050:1,2003-04-07T01:30:00Z,28.8425,-94.2433,2.0,199.8168957,8.259110122,-99999.0,'11133222,11111222,99999999' 
TABS,ioos:station:wmo:42050:1,2003-04-07T02:00:00Z,28.8425,-94.2433,2.0,193.3749259,10.72078822,-99999.0,'11111222,11111222,99999999' 
TABS,ioos:station:wmo:42050:1,2003-04-07T02:30:00Z,28.8425,-94.2433,2.0,201.7766313,13.01910135,-99999.0,'11111222,11111222,99999999' 
TABS,ioos:station:wmo:42050:1,2003-04-07T03:00:00Z,28.8425,-94.2433,2.0,198.5023406,16.07070627,-99999.0,'11111222,11111222,99999999' 
TABS,ioos:station:wmo:42050:1,2003-04-07T03:30:00Z,28.8425,-94.2433,2.0,192.3378721,17.92397835,-99999.0,'11111222,11111222,99999999' 
TABS,ioos:station:wmo:42050:1,2003-04-07T04:00:00Z,28.8425,-94.2433,2.0,194.4801991,19.39615684,-99999.0,'11111222,11111222,99999999' 
TABS,ioos:station:wmo:42050:1,2003-04-07T04:30:00Z,28.8425,-94.2433,2.0,193.3262445,22.51630964,-99999.0,'11111222,11111222,99999999' 
TABS,ioos:station:wmo:42050:1,2003-04-07T05:00:00Z,28.8425,-94.2433,2.0,183.4079119,28.25998054,-99999.0,'11111222,11111222,99999999' 
TABS,ioos:station:wmo:42050:1,2003-04-07T05:30:00Z,28.8425,-94.2433,2.0,189.3236946,25.18271034,-99999.0,'11111222,11111222,99999999' 
TABS,ioos:station:wmo:42050:1,2003-04-07T06:00:00Z,28.8425,-94.2433,2.0,190.264906,25.81317493,-99999.0,'11111222,11111222,99999999' 
TABS,ioos:station:wmo:42050:1,2003-04-07T06:30:00Z,28.8425,-94.2433,2.0,198.7097354,25.03287838,-99999.0,'11111222,11111222,99999999' 
TABS,ioos:station:wmo:42050:1,2003-04-07T07:00:00Z,28.8425,-94.2433,2.0,217.4765135,23.97934528,-99999.0,'11111222,11111222,99999999' 
TABS,ioos:station:wmo:42050:1,2003-04-07T07:30:00Z,28.8425,-94.2433,2.0,227.3279726,27.50087271,-99999.0,'11111222,11111222,99999999' 
TABS,ioos:station:wmo:42050:1,2003-04-07T08:00:00Z,28.8425,-94.2433,2.0,235.2591932,27.98932832,-99999.0,'11111222,11111222,99999999' 
TABS,ioos:station:wmo:42050:1,2003-04-07T08:30:00Z,28.8425,-94.2433,2.0,238.1616651,28.662465,-99999.0,'11111222,11111222,99999999' 
TABS,ioos:station:wmo:42050:1,2003-04-07T09:00:00Z,28.8425,-94.2433,2.0,245.2011444,27.4182804,-99999.0,'11111222,11111222,99999999' 
TABS,ioos:station:wmo:42050:1,2003-04-07T09:30:00Z,28.8425,-94.2433,2.0,238.2080594,25.28324544,-99999.0,'11111222,11111222,99999999' 
TABS,ioos:station:wmo:42050:1,2003-04-07T10:00:00Z,28.8425,-94.2433,2.0,240.934357,26.03920314,-99999.0,'11111222,11111222,99999999' 
TABS,ioos:station:wmo:42050:1,2003-04-07T10:30:00Z,28.8425,-94.2433,2.0,242.004122,27.58826018,-99999.0,'11111222,11111222,99999999' 
TABS,ioos:station:wmo:42050:1,2003-04-07T11:00:00Z,28.8425,-94.2433,2.0,242.5125193,27.23436249,-99999.0,'11111222,11111222,99999999' 
TABS,ioos:station:wmo:42050:1,2003-04-07T11:30:00Z,28.8425,-94.2433,2.0,241.8693746,27.99707306,-99999.0,'11111222,11111222,99999999' 